Regional Weather Roundup
Issued by NWS

Home | Current Version | Previous Version | Graphics & Text | Print | Product List | Glossary On
Versions: 1 2 3 4 5 6 7 8 9 10 11 12 13 14 15 16 17 18 19 20 21 22 23 24 25 26 27
000
ASUS45 KSLC 152010
RWRUT

UTAH REGIONAL WEATHER ROUNDUP
NATIONAL WEATHER SERVICE SALT LAKE CITY UT
200 PM MDT TUE APR 15 2014

UTZ001>011-023>025-152100-

NORTHERN UTAH

CITY           SKY/WX    TMP DP  RH WIND       PRES   REMARKS
HILL AFB       PTSUNNY   63   6  10 SW14G22   29.89F
LOGAN          CLOUDY    59  15  18 SW9       29.88F
OGDEN          MOSUNNY   64  14  14 W12       29.88F
PROVO AIRPORT  MOSUNNY   63  25  23 CALM      29.93F
SALT LAKE CITY MOSUNNY   66  14  13 SE9       29.88F
VERNAL         SUNNY     52  21  29 SE7       29.95F
WENDOVER       SUNNY     61  14  16 SE6       29.88F
HEBER CITY     SUNNY     61  12  15 SW15G21   29.92F
WEST JORDAN    SUNNY     63  27  25 SE17G25   29.90F

$$

UTZ012>022-026-027-152100-

SOUTHERN UTAH

CITY           SKY/WX    TMP DP  RH WIND       PRES   REMARKS
BRYCE CANYON   PTSUNNY   57  13  17 S9G20     30.07F
CEDAR CITY     CLOUDY    65   5   9 VRB3      29.99F
MILFORD        CLOUDY    65   6  10 S15       29.96F
MOAB/CYNLANDS  SUNNY     57  16  20 CALM      29.98F
PRICE          MOSUNNY   52  10  18 W6        30.01F
ST GEORGE      CLEAR     68  18  14 CALM      29.97F
KANAB            N/A     68   3   8 S14G20    30.02F

$$

REGIONAL REPORTS     COLORADO/ARIZONA

CITY           SKY/WX    TMP DP  RH WIND       PRES   REMARKS
CRAIG, CO      MOSUNNY   54  22  28 S17G26    29.95F
GRAND JUNCTION MOSUNNY   55  16  21 NW7       30.00F
RIFLE          CLOUDY    52  17  25 W10       30.00F
MONTROSE       PTSUNNY   54  20  26 SE3       30.04F
CORTEZ         SUNNY     61  11  14 S14       30.06F
PAGE, AZ       MOSUNNY   65   9  11 NE8       30.00F
GRAND CANYON   PTSUNNY   62  -8   6 W9        30.09F
KINGMAN        MOSUNNY   75  -6   4 SW15      29.98F
FLAGSTAFF      PTSUNNY   61   1   9 S16G26    30.10F

$$

REGIONAL REPORTS    NEVADA/IDAHO/WYOMING

CITY           SKY/WX    TMP DP  RH WIND       PRES   REMARKS
LAS VEGAS, NV  PTSUNNY   76   9   7 CALM      29.89F
ELY            SUNNY    N/A N/A N/A W16G23    29.98F
ELKO           MOSUNNY   65  18  16 W24G36    29.94F
POCATELLO, ID  PTSUNNY   60  15  17 W36G48    29.84F
BURLEY         LGT RAIN  57  27  31 W22G33    29.89F
EVANSTON, WY   MOSUNNY   57  11  16 SW26G36   29.91F
ROCK SPRINGS   MOSUNNY   59   6  12 W26G39    29.85

$$



USA.gov is the U.S. government's official web portal to all federal, state and local government web resources and services.